Location: Goll?ig?dem
(16.6773°N, 80.7332°E)
Time: 21:05:09
(UTC+00:00)

Cosmos 1190 Rocket - Pass Details

Date: 19 May 2025
Orbit: 753 x 776 km, 74.1° (Epoch: 21 June)

Event Time Altitude Azimuth Distance (km) Brightness Sun altitude
Exits shadow 22:41:48 33° 218° (SW) 1,277 4.6 -18.9°
Maximum altitude 22:44:02 59° 284° (WNW) 883 4.0 -18.4°
Drops below altitude 10° 22:49:13 10° 4° (N) 2,315 6.9 -17.3°
Sets 22:51:38 0° 8° (N) 3,245 7.8 -16.8°
